Preview of NWS' New Version of Forecast
This preview is not operational and should not be used for support decisions.

Regional Weather Roundup (RWR)

Issued by National Weather Service (NWS)

                            
000
ASUS46 KSEW 211610
RWRWA 

WASHINGTON REGIONAL WEATHER ROUNDUP
NATIONAL WEATHER SERVICE SEATTLE WA
900 AM PDT SUN APR 21 2019

NOTE:"FAIR" INDICATES FEW OR NO CLOUDS BELOW 12,000 FEET WITH NO 
SIGNIFICANT WEATHER AND/OR OBSTRUCTIONS TO VISIBILITY.

WAZ507-509-555>559-211700-
SEATTLE, TACOMA, EVERETT, AND VICINITY
  
CITY           SKY/WX    TMP DP  RH WIND       PRES   REMARKS
EVERETT        CLOUDY    47  45  93 S6        30.31R                  
BOEING FIELD   PTSUNNY   51  43  74 S7        30.31R                  
RENTON         MOSUNNY   52  43  71 SE7       30.31R                  
SEATAC AIRPORT PTSUNNY   50  42  74 S12       30.31R                  
JBLM-MCCHORD   PTSUNNY   51  50  97 SW7       30.32R                  
PUYALLUP       CLOUDY    50  45  81 VRB5      30.32R                  
BREMERTON      CLOUDY    47  44  90 S7        30.30R                  
JBLM-FT LEWIS  PTSUNNY   49  48  96 S7        30.31R                  
TACOMA NARROWS PTSUNNY   49  42  77 S6        30.31R                  
$$
 
WAZ001-503-506-510-514-515-211700-
NORTH INTERIOR
  
CITY           SKY/WX    TMP DP  RH WIND       PRES   REMARKS
BELLINGHAM     MOSUNNY   52  42  69 S10       30.27R                  
FRIDAY HARBOR  MOSUNNY   51  44  77 SW9       30.28R                  
EASTSOUND      MOSUNNY   54  45  71 S9        30.25S                  
PORT ANGELES   CLOUDY    50  42  74 W5        30.29S                  
EDIZ HOOK      FAIR      50  43  75 W10       30.29S                  
PORT TOWNSEND  CLOUDY    48  45  87 CALM      30.29S                  
NAS WHIDBEY    PTSUNNY   53  44  71 SW6       30.33R                  
ARLINGTON      CLOUDY    46  45  96 CALM      30.32R                  
BURLINGTON     CLOUDY    48  48 100 SE5       30.30S                  
$$
 
WAZ020-022-039-040-504-511-512-211700-
SOUTHWEST INTERIOR
  
CITY           SKY/WX    TMP DP  RH WIND       PRES   REMARKS
SHELTON        MOSUNNY   50  42  74 SW17      30.28R                  
OLYMPIA        PTSUNNY   51  41  68 SW10      30.32R                  
CHEHALIS       CLOUDY    48  45  87 S5        30.33R                  
KELSO          CLOUDY    50  44  80 CALM      30.35R                  
VANCOUVER      CLOUDY    51  42  71 W5        30.33R                  
SCAPPOOSE, OR  CLOUDY    52  43  71 CALM      30.33R                  
PORTLAND, OR   PTSUNNY   51  41  68 CALM      30.33R                  
$$
 
WAZ021-516-517-211700-
WASHINGTON COAST
  
CITY           SKY/WX    TMP DP  RH WIND       PRES   REMARKS
FORKS          CLOUDY    47  44  90 CALM      30.31S                  
HOQUIAM        CLOUDY    50  42  74 W8        30.32R                  
ASTORIA, OR    CLOUDY    50  40  68 NW7       30.33R                  
$$
 
WAZ019-023-024-040-567>569-211700-
CASCADE MOUNTAINS AND COLUMBIA GORGE
  
CITY           SKY/WX    TMP DP  RH WIND       PRES   REMARKS
STAMPEDE PASS  CLOUDY    38  35  89 VRB5      30.21R                  
TROUTDALE, OR  CLOUDY    51  42  71 CALM      30.32R                  
HOOD RIVER, OR SUNNY     54  41  62 MISG      30.24F                  
THE DALLES, OR SUNNY     54  42  64 NW13      30.23S                  
$$

WAZ026-027-041>044-520-521-211700-
EAST SLOPES
  
CITY           SKY/WX    TMP DP  RH WIND       PRES   REMARKS
OMAK           SUNNY     52  27  38 N10       30.18F                  
WENATCHEE      SUNNY     53  35  50 NW10      30.18S                  
ELLENSBURG     SUNNY     54  37  52 NW21G29   30.18S                  
YAKIMA         SUNNY     56  35  45 VRB5      30.20R                  
SUNNYSIDE ARPT SUNNY     52  40  65 CALM      30.21R                  
YAKIMA TC      FAIR      53  38  57 CALM      30.18S                  
$$

WAZ028-034-035-211700-
COLUMBIA BASIN
  
CITY           SKY/WX    TMP DP  RH WIND       PRES   REMARKS
EPHRATA        SUNNY     60  25  26 NW13      30.16R                  
MOSES LAKE     SUNNY     56  31  38 NW5       30.17R                  
PASCO          SUNNY     57  40  52 CALM      30.20R                  
RICHLAND ARPT  SUNNY     58  39  49 MISG      30.19                   
HERMISTON, OR  SUNNY     56  42  59 W12       30.20R                  
$$

WAZ036>038-211700-
NORTHEAST WASHINGTON
  
CITY           SKY/WX    TMP DP  RH WIND       PRES   REMARKS
SPOKANE GEIGER MOSUNNY   50  36  58 VRB3      30.14R                  
SPOKANE FELTS  SUNNY     47  38  71 CALM      30.15R                  
FAIRCHILD AFB  SUNNY     49  34  57 NE3       30.14R                  
COEURDALENE,ID SUNNY     47  38  71 NE10      30.15R                  
DEER PARK        N/A     53  31  42 NE8       30.14R                  
$$

WAZ029>033-211700-
SOUTHEAST WASHINGTON
  
CITY           SKY/WX    TMP DP  RH WIND       PRES   REMARKS
PULLMAN        SUNNY     48  40  73 W13       30.16R                  
LEWISTON, ID   SUNNY     53  42  66 CALM      30.14R                  
WALLA WALLA    SUNNY     53  41  63 SW12      30.18S                  
PENDLETON, OR  SUNNY     52  40  63 W14       30.19S                  
$$